Вернуться в каталог

NOAA 16 DEB

LostSSO
NORAD 41222·DEBRIS·🇺🇸 United States

Запущен Sep 21, 2000 с Vandenberg Space Force Base

Loading…

Ближайшие Пролёты (ближайшие 24 часа)

TLE

УстаревшееSource: Space-Track

Эпоха: Sep 30, 2022, 19:07 UTC

1 41222U 00055EB  22273.79659799  .00001936  00000-0  12726-2 0  9997
2 41222  98.7350 282.0034 0066802 184.1429 175.9193 14.01972889347889

Отслеживайте NOAA 16 DEB в реальном времени с AllMySat

Download on the App Store